sat.trackr.live / text

‹ back to catalog

STARLINK-37529

NORAD 68918 · 2026-097Z

PAYLOAD ACTIVE UNKNOWN

§ Identity

Operator
Country
US
Launch date
2026-04-30
Launch site
AFWTR
Launch vehicle
Mass (kg)
RCS (m²)

Purposes: comms

External: N2YO · Heavens-Above · Gunter

§ Orbital elements

Epoch: 2026-09-19T18:17:52.383840Z

Period
93.91 min
Inclination
97.2851°
Eccentricity
0.0002240
Mean motion
15.33453548 rev/d
Perigee alt
464.0 km
Apogee alt
467.1 km
Semi-major
6,843.7 km
B*
5.0378e-4
RAAN
96.9863°
Arg perigee
98.5172°
Mean anomaly
261.6324°
Rev number
2,198

§ Raw data

STARLINK-375291 68918U 26097Z   26262.76241185  .00016229  00000+0  50378-3 0  99932 68918  97.2851  96.9863 0002240  98.5172 261.6324 15.33453548 21982

JSON: /api/v1/satellites/68918 · /tle

For live sub-satellite position, see the globe view (requires WebGL).

§ Visibility from observer

Set your observer location to see the next 7 days of passes ≥ 10°. The values pass through the URL so the page stays shareable.

No JS? Fill the form by hand. The geolocation button needs JavaScript.